Time,TemperatureF,DewpointF,PressureIn,WindDirection,WindDirectionDegrees,WindSpeedMPH,WindSpeedGustMPH,Humidity,HourlyPrecipIn,Conditions,Clouds,dailyrainin,SoftwareType,DateUTC
2013-11-25 00:02:00,20.9,17.4,29.48,WNW,287,11.0,11.0,86,0.00,,,0.00,Wunderground v.1.15,2013-11-25 05:02:00,
2013-11-25 00:07:00,21.0,17.2,29.49,WNW,287,10.0,11.0,85,0.00,,,0.00,Wunderground v.1.15,2013-11-25 05:07:00,
2013-11-25 00:17:00,21.1,17.3,29.49,West,271,10.0,10.0,85,0.00,,,0.00,Wunderground v.1.15,2013-11-25 05:17:00,
2013-11-25 00:22:00,21.2,17.4,29.49,West,265,10.0,16.0,85,0.00,,,0.00,Wunderground v.1.15,2013-11-25 05:22:00,
2013-11-25 00:27:00,21.3,17.2,29.50,WNW,302,9.0,16.0,84,0.00,,,0.00,Wunderground v.1.15,2013-11-25 05:27:00,
2013-11-25 00:32:00,21.2,17.1,29.50,West,269,10.0,18.0,84,0.00,,,0.00,Wunderground v.1.15,2013-11-25 05:32:00,
2013-11-25 00:37:00,21.3,17.2,29.50,WNW,294,11.0,18.0,84,0.00,,,0.00,Wunderground v.1.15,2013-11-25 05:37:00,
2013-11-25 00:42:00,21.3,17.2,29.50,NW,321,12.0,12.0,84,0.00,,,0.00,Wunderground v.1.15,2013-11-25 05:42:00,
2013-11-25 00:47:00,21.3,17.2,29.50,NW,313,12.0,12.0,84,0.00,,,0.00,Wunderground v.1.15,2013-11-25 05:47:00,
2013-11-25 00:52:00,21.3,17.2,29.50,WNW,283,11.0,11.0,84,0.00,,,0.00,Wunderground v.1.15,2013-11-25 05:52:00,
2013-11-25 00:57:00,21.4,17.3,29.50,West,277,11.0,11.0,84,0.00,,,0.00,Wunderground v.1.15,2013-11-25 05:57:00,
2013-11-25 01:02:00,21.5,17.1,29.51,WNW,291,13.0,13.0,83,0.00,,,0.00,Wunderground v.1.15,2013-11-25 06:02:00,
2013-11-25 01:12:00,21.6,17.2,29.51,WNW,302,9.0,21.0,83,0.00,,,0.00,Wunderground v.1.15,2013-11-25 06:12:00,
2013-11-25 01:17:00,21.6,17.2,29.52,WNW,294,10.0,21.0,83,0.00,,,0.00,Wunderground v.1.15,2013-11-25 06:17:00,
2013-11-25 01:22:00,21.7,17.1,29.52,NW,309,11.0,11.0,82,0.00,,,0.00,Wunderground v.1.15,2013-11-25 06:22:00,
2013-11-25 01:27:00,21.8,17.2,29.52,WNW,298,10.0,11.0,82,0.00,,,0.00,Wunderground v.1.15,2013-11-25 06:27:00,
2013-11-25 01:32:00,21.8,16.9,29.52,NW,317,10.0,10.0,81,0.00,,,0.00,Wunderground v.1.15,2013-11-25 06:32:00,
2013-11-25 01:37:00,21.8,17.2,29.52,West,281,9.0,10.0,82,0.00,,,0.00,Wunderground v.1.15,2013-11-25 06:37:00,
2013-11-25 01:47:00,21.7,17.3,29.53,WNW,299,12.0,16.0,83,0.00,,,0.00,Wunderground v.1.15,2013-11-25 06:47:00,
2013-11-25 01:57:00,21.4,17.6,29.53,WNW,285,10.0,11.0,85,0.00,,,0.00,Wunderground v.1.15,2013-11-25 06:57:00,
2013-11-25 02:02:00,21.3,17.8,29.53,WNW,286,10.0,10.0,86,0.00,,,0.00,Wunderground v.1.15,2013-11-25 07:02:00,
2013-11-25 02:07:00,21.4,17.6,29.53,West,271,10.0,10.0,85,0.00,,,0.00,Wunderground v.1.15,2013-11-25 07:07:00,
2013-11-25 02:12:00,21.5,17.7,29.54,NW,308,10.0,12.0,85,0.00,,,0.00,Wunderground v.1.15,2013-11-25 07:12:00,
2013-11-25 02:17:00,21.6,17.5,29.54,West,277,9.0,12.0,84,0.00,,,0.00,Wunderground v.1.15,2013-11-25 07:17:00,
2013-11-25 02:22:00,21.6,17.5,29.54,WNW,292,9.0,10.0,84,0.00,,,0.00,Wunderground v.1.15,2013-11-25 07:22:00,
2013-11-25 02:27:00,21.7,17.6,29.54,WNW,283,11.0,11.0,84,0.00,,,0.00,Wunderground v.1.15,2013-11-25 07:27:00,
2013-11-25 02:32:00,21.6,17.8,29.55,WNW,298,12.0,17.0,85,0.00,,,0.00,Wunderground v.1.15,2013-11-25 07:32:00,
2013-11-25 02:37:00,21.4,17.9,29.55,West,272,11.0,17.0,86,0.00,,,0.00,Wunderground v.1.15,2013-11-25 07:37:00,
2013-11-25 02:42:00,21.5,18.0,29.55,West,272,10.0,10.0,86,0.00,,,0.00,Wunderground v.1.15,2013-11-25 07:42:00,
2013-11-25 02:47:00,21.5,18.0,29.55,NW,317,10.0,13.0,86,0.00,,,0.00,Wunderground v.1.15,2013-11-25 07:47:00,
2013-11-25 02:52:00,21.5,18.0,29.56,NW,317,12.0,12.0,86,0.00,,,0.00,Wunderground v.1.15,2013-11-25 07:52:00,
2013-11-25 02:57:00,21.5,18.0,29.56,WNW,284,13.0,13.0,86,0.00,,,0.00,Wunderground v.1.15,2013-11-25 07:57:00,
2013-11-25 03:02:00,21.5,17.7,29.57,WNW,288,12.0,14.0,85,0.00,,,0.00,Wunderground v.1.15,2013-11-25 08:02:00,
2013-11-25 03:07:00,21.7,17.6,29.57,WNW,300,10.0,14.0,84,0.00,,,0.00,Wunderground v.1.15,2013-11-25 08:07:00,
2013-11-25 03:12:00,21.8,17.7,29.57,West,277,10.0,10.0,84,0.00,,,0.00,Wunderground v.1.15,2013-11-25 08:12:00,
2013-11-25 03:17:00,21.8,18.0,29.57,WNW,292,12.0,19.0,85,0.00,,,0.00,Wunderground v.1.15,2013-11-25 08:17:00,
2013-11-25 03:22:00,21.6,17.8,29.58,WSW,250,12.0,15.0,85,0.00,,,0.00,Wunderground v.1.15,2013-11-25 08:22:00,
2013-11-25 03:32:00,21.7,17.6,29.58,WSW,248,10.0,12.0,84,0.00,,,0.00,Wunderground v.1.15,2013-11-25 08:32:00,
2013-11-25 03:37:00,21.7,17.6,29.59,West,277,11.0,12.0,84,0.00,,,0.00,Wunderground v.1.15,2013-11-25 08:37:00,
2013-11-25 03:42:00,21.7,17.6,29.59,West,277,10.0,12.0,84,0.00,,,0.00,Wunderground v.1.15,2013-11-25 08:42:00,
2013-11-25 03:47:00,21.7,17.6,29.59,NW,310,9.0,14.0,84,0.00,,,0.00,Wunderground v.1.15,2013-11-25 08:47:00,
2013-11-25 03:52:00,21.7,17.6,29.60,WNW,291,8.0,9.0,84,0.00,,,0.00,Wunderground v.1.15,2013-11-25 08:52:00,
2013-11-25 03:57:00,21.7,17.6,29.60,WNW,284,9.0,9.0,84,0.00,,,0.00,Wunderground v.1.15,2013-11-25 08:57:00,
2013-11-25 04:02:00,21.6,18.1,29.60,West,272,9.0,9.0,86,0.00,,,0.00,Wunderground v.1.15,2013-11-25 09:02:00,
2013-11-25 04:12:00,21.4,17.9,29.61,NW,309,9.0,16.0,86,0.00,,,0.00,Wunderground v.1.15,2013-11-25 09:12:00,
2013-11-25 04:22:00,21.4,17.9,29.62,WNW,295,10.0,10.0,86,0.00,,,0.00,Wunderground v.1.15,2013-11-25 09:22:00,
2013-11-25 04:27:00,21.4,17.9,29.62,WSW,248,7.0,15.0,86,0.00,,,0.00,Wunderground v.1.15,2013-11-25 09:27:00,
2013-11-25 04:32:00,21.5,17.4,29.62,NW,315,9.0,11.0,84,0.00,,,0.00,Wunderground v.1.15,2013-11-25 09:32:00,
2013-11-25 04:42:00,21.5,17.1,29.63,West,266,12.0,12.0,83,0.00,,,0.00,Wunderground v.1.15,2013-11-25 09:42:00,
2013-11-25 04:47:00,21.5,17.1,29.63,WNW,282,9.0,12.0,83,0.00,,,0.00,Wunderground v.1.15,2013-11-25 09:47:00,
2013-11-25 04:52:00,21.5,16.9,29.63,WNW,300,10.0,11.0,82,0.00,,,0.00,Wunderground v.1.15,2013-11-25 09:52:00,
2013-11-25 04:57:00,21.6,17.2,29.63,West,273,10.0,11.0,83,0.00,,,0.00,Wunderground v.1.15,2013-11-25 09:57:00,
2013-11-25 05:02:00,21.5,17.4,29.64,NW,306,10.0,17.0,84,0.00,,,0.00,Wunderground v.1.15,2013-11-25 10:02:00,
2013-11-25 05:07:00,21.3,17.5,29.64,WNW,293,11.0,17.0,85,0.00,,,0.00,Wunderground v.1.15,2013-11-25 10:07:00,
2013-11-25 05:12:00,21.3,17.5,29.65,WNW,293,13.0,13.0,85,0.00,,,0.00,Wunderground v.1.15,2013-11-25 10:12:00,
2013-11-25 05:17:00,21.3,17.2,29.65,NW,318,12.0,22.0,84,0.00,,,0.00,Wunderground v.1.15,2013-11-25 10:17:00,
2013-11-25 05:22:00,21.3,16.9,29.65,WNW,300,12.0,12.0,83,0.00,,,0.00,Wunderground v.1.15,2013-11-25 10:22:00,
2013-11-25 05:32:00,21.5,17.1,29.66,NW,309,9.0,9.0,83,0.00,,,0.00,Wunderground v.1.15,2013-11-25 10:32:00,
2013-11-25 05:37:00,21.4,17.0,29.66,NNW,334,10.0,10.0,83,0.00,,,0.00,Wunderground v.1.15,2013-11-25 10:37:00,
2013-11-25 05:42:00,21.3,16.7,29.66,West,273,12.0,12.0,82,0.00,,,0.00,Wunderground v.1.15,2013-11-25 10:42:00,
2013-11-25 05:47:00,21.2,16.6,29.67,West,277,12.0,12.0,82,0.00,,,0.00,Wunderground v.1.15,2013-11-25 10:47:00,
2013-11-25 05:52:00,21.2,16.6,29.67,NW,310,10.0,10.0,82,0.00,,,0.00,Wunderground v.1.15,2013-11-25 10:52:00,
2013-11-25 06:02:00,21.4,17.0,29.67,West,277,10.0,15.0,83,0.00,,,0.00,Wunderground v.1.15,2013-11-25 11:02:00,
2013-11-25 06:12:00,21.3,17.2,29.68,WNW,303,11.0,11.0,84,0.00,,,0.00,Wunderground v.1.15,2013-11-25 11:12:00,
2013-11-25 06:17:00,21.3,17.5,29.68,West,263,10.0,11.0,85,0.00,,,0.00,Wunderground v.1.15,2013-11-25 11:17:00,
2013-11-25 06:22:00,21.2,17.4,29.69,NW,306,11.0,11.0,85,0.00,,,0.00,Wunderground v.1.15,2013-11-25 11:22:00,
2013-11-25 06:27:00,21.2,17.4,29.70,WNW,282,10.0,11.0,85,0.00,,,0.00,Wunderground v.1.15,2013-11-25 11:27:00,
2013-11-25 06:37:00,21.2,17.7,29.71,WNW,282,9.0,9.0,86,0.00,,,0.00,Wunderground v.1.15,2013-11-25 11:37:00,
2013-11-25 06:47:00,21.1,17.8,29.72,West,273,9.0,10.0,87,0.00,,,0.00,Wunderground v.1.15,2013-11-25 11:47:00,
2013-11-25 06:52:00,21.3,17.8,29.72,WNW,288,8.0,11.0,86,0.00,,,0.00,Wunderground v.1.15,2013-11-25 11:52:00,
2013-11-25 06:57:00,21.4,17.9,29.72,West,268,8.0,11.0,86,0.00,,,0.00,Wunderground v.1.15,2013-11-25 11:57:00,
2013-11-25 07:02:00,21.5,17.7,29.72,WNW,296,9.0,9.0,85,0.00,,,0.00,Wunderground v.1.15,2013-11-25 12:02:00,
2013-11-25 07:07:00,21.4,17.9,29.73,WNW,301,9.0,9.0,86,0.00,,,0.00,Wunderground v.1.15,2013-11-25 12:07:00,
2013-11-25 07:12:00,21.3,18.0,29.73,West,266,9.0,9.0,87,0.00,,,0.00,Wunderground v.1.15,2013-11-25 12:12:00,
2013-11-25 07:23:00,21.5,18.0,29.74,WNW,300,8.0,14.0,86,0.00,,,0.00,Wunderground v.1.15,2013-11-25 12:23:00,
2013-11-25 07:27:00,21.5,18.0,29.74,WNW,301,10.0,14.0,86,0.00,,,0.00,Wunderground v.1.15,2013-11-25 12:27:00,
2013-11-25 07:32:00,21.6,18.1,29.74,WNW,289,10.0,10.0,86,0.00,,,0.00,Wunderground v.1.15,2013-11-25 12:32:00,
2013-11-25 07:37:00,21.5,18.0,29.75,West,261,9.0,10.0,86,0.00,,,0.00,Wunderground v.1.15,2013-11-25 12:37:00,
2013-11-25 07:42:00,21.6,18.1,29.75,WNW,294,8.0,8.0,86,0.00,,,0.00,Wunderground v.1.15,2013-11-25 12:42:00,
2013-11-25 07:47:00,21.6,18.1,29.75,West,259,9.0,9.0,86,0.00,,,0.00,Wunderground v.1.15,2013-11-25 12:47:00,
2013-11-25 07:52:00,21.8,17.7,29.76,West,281,9.0,9.0,84,0.00,,,0.00,Wunderground v.1.15,2013-11-25 12:52:00,
2013-11-25 07:57:00,22.0,17.6,29.76,NW,322,10.0,10.0,83,0.00,,,0.00,Wunderground v.1.15,2013-11-25 12:57:00,
2013-11-25 08:02:00,22.2,17.3,29.77,WNW,284,10.0,12.0,81,0.00,,,0.00,Wunderground v.1.15,2013-11-25 13:02:00,
2013-11-25 08:07:00,22.3,17.4,29.77,West,264,11.0,14.0,81,0.00,,,0.00,Wunderground v.1.15,2013-11-25 13:07:00,
2013-11-25 08:17:00,22.2,17.3,29.78,West,262,10.0,11.0,81,0.00,,,0.00,Wunderground v.1.15,2013-11-25 13:17:00,
2013-11-25 08:27:00,22.2,17.5,29.78,WNW,286,11.0,11.0,82,0.00,,,0.00,Wunderground v.1.15,2013-11-25 13:27:00,
2013-11-25 08:32:00,22.2,17.3,29.79,WNW,292,12.0,12.0,81,0.00,,,0.00,Wunderground v.1.15,2013-11-25 13:32:00,
2013-11-25 08:37:00,22.3,17.4,29.79,NW,308,10.0,13.0,81,0.00,,,0.00,Wunderground v.1.15,2013-11-25 13:37:00,
2013-11-25 08:42:00,22.4,17.2,29.79,WNW,284,9.0,10.0,80,0.00,,,0.00,Wunderground v.1.15,2013-11-25 13:42:00,
2013-11-25 08:47:00,22.5,17.3,29.79,NW,309,10.0,15.0,80,0.00,,,0.00,Wunderground v.1.15,2013-11-25 13:47:00,
2013-11-25 08:52:00,22.4,17.2,29.80,West,273,10.0,10.0,80,0.00,,,0.00,Wunderground v.1.15,2013-11-25 13:52:00,
2013-11-25 08:57:00,22.4,16.9,29.80,WNW,298,11.0,18.0,79,0.00,,,0.00,Wunderground v.1.15,2013-11-25 13:57:00,
2013-11-25 09:02:00,22.5,17.0,29.80,WNW,291,12.0,12.0,79,0.00,,,0.00,Wunderground v.1.15,2013-11-25 14:02:00,
2013-11-25 09:07:00,22.7,16.9,29.81,WSW,248,11.0,12.0,78,0.00,,,0.00,Wunderground v.1.15,2013-11-25 14:07:00,
2013-11-25 09:12:00,22.8,17.0,29.81,NW,313,10.0,10.0,78,0.00,,,0.00,Wunderground v.1.15,2013-11-25 14:12:00,
2013-11-25 09:17:00,22.9,17.4,29.81,WNW,302,12.0,12.0,79,0.00,,,0.00,Wunderground v.1.15,2013-11-25 14:17:00,
2013-11-25 09:22:00,22.9,16.8,29.82,NW,319,11.0,13.0,77,0.00,,,0.00,Wunderground v.1.15,2013-11-25 14:22:00,
2013-11-25 09:27:00,23.0,16.9,29.81,WNW,298,11.0,19.0,77,0.00,,,0.00,Wunderground v.1.15,2013-11-25 14:27:00,
2013-11-25 09:37:00,23.2,16.1,29.82,West,260,11.0,14.0,74,0.00,,,0.00,Wunderground v.1.15,2013-11-25 14:37:00,
2013-11-25 09:42:00,23.2,15.8,29.83,WSW,251,11.0,11.0,73,0.00,,,0.00,Wunderground v.1.15,2013-11-25 14:42:00,
2013-11-25 09:47:00,23.3,16.2,29.83,WNW,292,12.0,12.0,74,0.00,,,0.00,Wunderground v.1.15,2013-11-25 14:47:00,
2013-11-25 09:52:00,23.5,16.1,29.83,WNW,288,12.0,13.0,73,0.00,,,0.00,Wunderground v.1.15,2013-11-25 14:52:00,
2013-11-25 09:57:00,23.4,16.0,29.83,West,262,12.0,13.0,73,0.00,,,0.00,Wunderground v.1.15,2013-11-25 14:57:00,
2013-11-25 10:02:00,23.4,16.0,29.83,NW,306,11.0,15.0,73,0.00,,,0.00,Wunderground v.1.15,2013-11-25 15:02:00,
2013-11-25 10:07:00,23.5,15.8,29.84,WNW,296,11.0,15.0,72,0.00,,,0.00,Wunderground v.1.15,2013-11-25 15:07:00,
2013-11-25 10:12:00,23.5,15.8,29.84,WNW,292,11.0,11.0,72,0.00,,,0.00,Wunderground v.1.15,2013-11-25 15:12:00,
2013-11-25 10:17:00,23.6,15.6,29.84,WNW,286,13.0,13.0,71,0.00,,,0.00,Wunderground v.1.15,2013-11-25 15:17:00,
2013-11-25 10:22:00,23.5,15.1,29.85,West,273,12.0,12.0,70,0.00,,,0.00,Wunderground v.1.15,2013-11-25 15:22:00,
2013-11-25 10:27:00,23.5,15.1,29.85,WNW,299,12.0,12.0,70,0.00,,,0.00,Wunderground v.1.15,2013-11-25 15:27:00,
2013-11-25 10:32:00,23.6,15.6,29.85,NW,306,12.0,14.0,71,0.00,,,0.00,Wunderground v.1.15,2013-11-25 15:32:00,
2013-11-25 10:37:00,23.7,15.3,29.85,WNW,292,13.0,20.0,70,0.00,,,0.00,Wunderground v.1.15,2013-11-25 15:37:00,
2013-11-25 10:47:00,24.0,15.6,29.85,WSW,244,14.0,15.0,70,0.00,,,0.00,Wunderground v.1.15,2013-11-25 15:47:00,
2013-11-25 10:52:00,23.9,15.5,29.86,WNW,295,12.0,12.0,70,0.00,,,0.00,Wunderground v.1.15,2013-11-25 15:52:00,
2013-11-25 10:57:00,24.1,15.7,29.86,WNW,290,10.0,12.0,70,0.00,,,0.00,Wunderground v.1.15,2013-11-25 15:57:00,
2013-11-25 11:07:00,24.1,15.7,29.87,WNW,287,11.0,11.0,70,0.00,,,0.00,Wunderground v.1.15,2013-11-25 16:07:00,
2013-11-25 11:12:00,23.7,15.3,29.87,West,280,10.0,12.0,70,0.00,,,0.00,Wunderground v.1.15,2013-11-25 16:12:00,
2013-11-25 11:17:00,24.0,15.6,29.88,NW,304,9.0,13.0,70,0.00,,,0.00,Wunderground v.1.15,2013-11-25 16:17:00,
2013-11-25 11:22:00,24.3,15.9,29.88,West,276,8.0,8.0,70,0.00,,,0.00,Wunderground v.1.15,2013-11-25 16:22:00,
2013-11-25 11:27:00,24.3,15.6,29.87,WNW,303,8.0,18.0,69,0.00,,,0.00,Wunderground v.1.15,2013-11-25 16:27:00,
2013-11-25 11:32:00,24.3,15.6,29.88,WNW,294,11.0,12.0,69,0.00,,,0.00,Wunderground v.1.15,2013-11-25 16:32:00,
2013-11-25 11:37:00,24.3,15.6,29.88,WSW,255,13.0,13.0,69,0.00,,,0.00,Wunderground v.1.15,2013-11-25 16:37:00,
2013-11-25 11:42:00,24.2,15.2,29.89,West,281,12.0,17.0,68,0.00,,,0.00,Wunderground v.1.15,2013-11-25 16:42:00,
2013-11-25 11:47:00,24.4,15.3,29.89,NW,309,11.0,17.0,68,0.00,,,0.00,Wunderground v.1.15,2013-11-25 16:47:00,
2013-11-25 11:52:00,24.5,15.4,29.89,NW,323,10.0,20.0,68,0.00,,,0.00,Wunderground v.1.15,2013-11-25 16:52:00,
2013-11-25 11:57:00,24.6,15.2,29.89,NW,307,10.0,20.0,67,0.00,,,0.00,Wunderground v.1.15,2013-11-25 16:57:00,
2013-11-25 12:02:00,24.8,15.4,29.90,West,279,11.0,11.0,67,0.00,,,0.00,Wunderground v.1.15,2013-11-25 17:02:00,
2013-11-25 12:07:00,24.8,15.4,29.90,NW,313,11.0,11.0,67,0.00,,,0.00,Wunderground v.1.15,2013-11-25 17:07:00,
2013-11-25 12:17:00,25.2,15.4,29.90,NNW,331,11.0,13.0,66,0.00,,,0.00,Wunderground v.1.15,2013-11-25 17:17:00,
2013-11-25 12:27:00,25.2,15.8,29.90,NW,304,9.0,18.0,67,0.00,,,0.00,Wunderground v.1.15,2013-11-25 17:27:00,
2013-11-25 12:32:00,25.2,15.8,29.90,WNW,283,11.0,11.0,67,0.00,,,0.00,Wunderground v.1.15,2013-11-25 17:32:00,
2013-11-25 12:37:00,25.2,15.8,29.91,NW,308,11.0,11.0,67,0.00,,,0.00,Wunderground v.1.15,2013-11-25 17:37:00,
2013-11-25 12:42:00,25.1,15.7,29.91,WNW,291,9.0,9.0,67,0.00,,,0.00,Wunderground v.1.15,2013-11-25 17:42:00,
2013-11-25 12:47:00,25.1,15.7,29.91,West,280,9.0,9.0,67,0.00,,,0.00,Wunderground v.1.15,2013-11-25 17:47:00,
2013-11-25 12:52:00,25.1,15.7,29.91,WNW,288,9.0,9.0,67,0.00,,,0.00,Wunderground v.1.15,2013-11-25 17:52:00,
2013-11-25 12:57:00,25.1,16.0,29.92,WNW,292,9.0,12.0,68,0.00,,,0.00,Wunderground v.1.15,2013-11-25 17:57:00,
2013-11-25 13:02:00,25.1,15.0,29.92,NW,304,10.0,18.0,65,0.00,,,0.00,Wunderground v.1.15,2013-11-25 18:02:00,
2013-11-25 13:07:00,25.1,15.3,29.92,West,277,13.0,18.0,66,0.00,,,0.00,Wunderground v.1.15,2013-11-25 18:07:00,
2013-11-25 13:12:00,25.2,15.4,29.93,NW,326,12.0,17.0,66,0.00,,,0.00,Wunderground v.1.15,2013-11-25 18:12:00,
2013-11-25 13:17:00,25.3,15.5,29.93,West,273,11.0,17.0,66,0.00,,,0.00,Wunderground v.1.15,2013-11-25 18:17:00,
2013-11-25 13:27:00,25.3,15.2,29.94,NW,304,12.0,12.0,65,0.00,,,0.00,Wunderground v.1.15,2013-11-25 18:27:00,
2013-11-25 13:32:00,25.3,15.5,29.94,WNW,303,12.0,15.0,66,0.00,,,0.00,Wunderground v.1.15,2013-11-25 18:32:00,
2013-11-25 13:37:00,25.2,15.1,29.94,NW,313,12.0,15.0,65,0.00,,,0.00,Wunderground v.1.15,2013-11-25 18:37:00,
2013-11-25 13:42:00,25.1,15.0,29.95,WNW,299,11.0,11.0,65,0.00,,,0.00,Wunderground v.1.15,2013-11-25 18:42:00,
2013-11-25 13:47:00,25.1,15.0,29.95,NW,309,11.0,18.0,65,0.00,,,0.00,Wunderground v.1.15,2013-11-25 18:47:00,
2013-11-25 13:52:00,25.1,15.3,29.95,WNW,300,12.0,12.0,66,0.00,,,0.00,Wunderground v.1.15,2013-11-25 18:52:00,
2013-11-25 13:57:00,25.2,15.1,29.96,West,275,11.0,12.0,65,0.00,,,0.00,Wunderground v.1.15,2013-11-25 18:57:00,
2013-11-25 14:02:00,25.2,15.1,29.96,WSW,257,10.0,11.0,65,0.00,,,0.00,Wunderground v.1.15,2013-11-25 19:02:00,
2013-11-25 14:07:00,25.3,15.5,29.97,NW,305,10.0,11.0,66,0.00,,,0.00,Wunderground v.1.15,2013-11-25 19:07:00,
2013-11-25 14:12:00,25.3,15.5,29.97,WNW,290,10.0,10.0,66,0.00,,,0.00,Wunderground v.1.15,2013-11-25 19:12:00,
2013-11-25 14:17:00,25.4,15.3,29.97,WNW,300,10.0,10.0,65,0.00,,,0.00,Wunderground v.1.15,2013-11-25 19:17:00,
2013-11-25 14:22:00,25.5,15.4,29.98,West,265,10.0,11.0,65,0.00,,,0.00,Wunderground v.1.15,2013-11-25 19:22:00,
2013-11-25 14:32:00,25.5,15.4,29.98,WNW,292,9.0,9.0,65,0.00,,,0.00,Wunderground v.1.15,2013-11-25 19:32:00,
2013-11-25 14:37:00,25.5,15.4,29.99,West,261,9.0,9.0,65,0.00,,,0.00,Wunderground v.1.15,2013-11-25 19:37:00,
2013-11-25 14:42:00,25.4,15.3,29.99,WNW,298,8.0,10.0,65,0.00,,,0.00,Wunderground v.1.15,2013-11-25 19:42:00,
2013-11-25 14:47:00,25.3,15.2,30.00,WNW,286,9.0,10.0,65,0.00,,,0.00,Wunderground v.1.15,2013-11-25 19:47:00,
2013-11-25 14:52:00,25.2,15.1,30.00,WNW,284,11.0,11.0,65,0.00,,,0.00,Wunderground v.1.15,2013-11-25 19:52:00,
2013-11-25 14:57:00,25.2,15.1,30.01,WNW,296,10.0,11.0,65,0.00,,,0.00,Wunderground v.1.15,2013-11-25 19:57:00,
2013-11-25 15:02:00,25.3,15.2,30.01,West,259,9.0,9.0,65,0.00,,,0.00,Wunderground v.1.15,2013-11-25 20:02:00,
2013-11-25 15:07:00,25.5,15.0,30.01,West,275,8.0,9.0,64,0.00,,,0.00,Wunderground v.1.15,2013-11-25 20:07:00,
2013-11-25 15:15:00,25.6,15.1,30.02,WNW,283,7.0,7.0,64,0.00,,,0.00,Wunderground v.1.15,2013-11-25 20:15:00,
2013-11-25 15:20:00,25.4,14.9,30.02,WSW,243,6.0,7.0,64,0.00,,,0.00,Wunderground v.1.15,2013-11-25 20:20:00,
2013-11-25 15:30:00,25.3,15.2,30.03,WNW,297,5.0,5.0,65,0.00,,,0.00,Wunderground v.1.15,2013-11-25 20:30:00,
2013-11-25 15:35:00,25.2,15.1,30.03,West,281,5.0,5.0,65,0.00,,,0.00,Wunderground v.1.15,2013-11-25 20:35:00,
2013-11-25 15:40:00,25.2,14.7,30.03,West,274,6.0,6.0,64,0.00,,,0.00,Wunderground v.1.15,2013-11-25 20:40:00,
2013-11-25 15:46:00,25.2,14.7,30.03,West,264,7.0,7.0,64,0.00,,,0.00,Wunderground v.1.15,2013-11-25 20:46:00,
2013-11-25 15:50:00,25.1,14.6,30.04,WNW,292,6.0,7.0,64,0.00,,,0.00,Wunderground v.1.15,2013-11-25 20:50:00,
2013-11-25 15:56:00,25.0,14.5,30.04,WNW,302,5.0,5.0,64,0.00,,,0.00,Wunderground v.1.15,2013-11-25 20:56:00,
2013-11-25 16:05:00,24.9,14.4,30.05,West,263,5.0,5.0,64,0.00,,,0.00,Wunderground v.1.15,2013-11-25 21:05:00,
2013-11-25 16:10:00,24.9,14.4,30.05,West,276,6.0,6.0,64,0.00,,,0.00,Wunderground v.1.15,2013-11-25 21:10:00,
2013-11-25 16:15:00,24.8,14.3,30.05,SW,229,5.0,9.0,64,0.00,,,0.00,Wunderground v.1.15,2013-11-25 21:15:00,
2013-11-25 16:20:00,24.9,14.4,30.06,West,267,6.0,6.0,64,0.00,,,0.00,Wunderground v.1.15,2013-11-25 21:20:00,
2013-11-25 16:25:00,24.8,14.7,30.06,NW,323,6.0,7.0,65,0.00,,,0.00,Wunderground v.1.15,2013-11-25 21:25:00,
2013-11-25 19:15:00,23.6,13.5,30.13,WSW,256,5.0,7.0,65,0.00,,,0.00,Wunderground v.1.15,2013-11-26 00:15:00,
2013-11-25 19:20:00,23.4,13.7,30.14,West,260,4.0,7.0,66,0.00,,,0.00,Wunderground v.1.15,2013-11-26 00:20:00,
2013-11-25 19:25:00,23.3,13.6,30.15,West,259,4.0,7.0,66,0.00,,,0.00,Wunderground v.1.15,2013-11-26 00:25:00,
2013-11-25 19:30:00,23.2,13.5,30.15,West,271,5.0,7.0,66,0.00,,,0.00,Wunderground v.1.15,2013-11-26 00:30:00,
2013-11-25 19:35:00,23.2,13.5,30.15,NW,314,5.0,7.0,66,0.00,,,0.00,Wunderground v.1.15,2013-11-26 00:35:00,
2013-11-25 19:40:00,22.9,13.2,30.15,West,270,5.0,8.0,66,0.00,,,0.00,Wunderground v.1.15,2013-11-26 00:40:00,
2013-11-25 19:46:00,22.8,13.1,30.16,WNW,294,6.0,8.0,66,0.00,,,0.00,Wunderground v.1.15,2013-11-26 00:46:00,
2013-11-25 19:51:00,22.7,13.0,30.16,WNW,291,6.0,6.0,66,0.00,,,0.00,Wunderground v.1.15,2013-11-26 00:51:00,
2013-11-25 20:00:00,22.6,12.9,30.16,West,266,6.0,6.0,66,0.00,,,0.00,Wunderground v.1.15,2013-11-26 01:00:00,
2013-11-25 20:05:00,22.5,13.2,30.16,NW,312,6.0,8.0,67,0.00,,,0.00,Wunderground v.1.15,2013-11-26 01:05:00,
2013-11-25 20:11:00,22.4,13.1,30.16,WSW,244,6.0,6.0,67,0.00,,,0.00,Wunderground v.1.15,2013-11-26 01:11:00,
2013-11-25 20:16:00,22.4,13.1,30.16,WNW,297,5.0,6.0,67,0.00,,,0.00,Wunderground v.1.15,2013-11-26 01:16:00,
2013-11-25 20:21:00,22.1,12.8,30.17,WNW,294,4.0,7.0,67,0.00,,,0.00,Wunderground v.1.15,2013-11-26 01:21:00,
2013-11-25 20:26:00,22.1,12.8,30.17,WNW,290,5.0,7.0,67,0.00,,,0.00,Wunderground v.1.15,2013-11-26 01:26:00,
2013-11-25 20:31:00,22.0,12.7,30.17,WNW,302,5.0,9.0,67,0.00,,,0.00,Wunderground v.1.15,2013-11-26 01:31:00,
2013-11-25 20:35:00,21.8,12.5,30.17,WNW,283,5.0,9.0,67,0.00,,,0.00,Wunderground v.1.15,2013-11-26 01:35:00,
2013-11-25 20:40:00,21.8,12.5,30.17,WNW,303,7.0,7.0,67,0.00,,,0.00,Wunderground v.1.15,2013-11-26 01:40:00,
2013-11-25 20:46:00,21.7,12.4,30.17,WNW,293,7.0,7.0,67,0.00,,,0.00,Wunderground v.1.15,2013-11-26 01:46:00,
2013-11-25 20:50:00,21.6,12.3,30.17,NW,306,6.0,6.0,67,0.00,,,0.00,Wunderground v.1.15,2013-11-26 01:50:00,
2013-11-25 20:56:00,21.5,11.9,30.16,WNW,291,5.0,6.0,66,0.00,,,0.00,Wunderground v.1.15,2013-11-26 01:56:00,
2013-11-25 21:06:00,21.1,11.8,30.17,WNW,301,4.0,5.0,67,0.00,,,0.00,Wunderground v.1.15,2013-11-26 02:06:00,
2013-11-25 21:11:00,20.9,11.7,30.17,WNW,286,4.0,4.0,67,0.00,,,0.00,Wunderground v.1.15,2013-11-26 02:11:00,
2013-11-25 21:16:00,20.8,11.6,30.18,WSW,258,4.0,8.0,67,0.00,,,0.00,Wunderground v.1.15,2013-11-26 02:16:00,
2013-11-25 21:21:00,20.9,11.7,30.18,WNW,286,4.0,4.0,67,0.00,,,0.00,Wunderground v.1.15,2013-11-26 02:21:00,
2013-11-25 21:26:00,20.8,11.6,30.18,West,261,4.0,5.0,67,0.00,,,0.00,Wunderground v.1.15,2013-11-26 02:26:00,
2013-11-25 21:31:00,20.6,11.4,30.19,WSW,246,3.0,6.0,67,0.00,,,0.00,Wunderground v.1.15,2013-11-26 02:31:00,
2013-11-25 21:36:00,20.7,11.5,30.20,West,269,4.0,6.0,67,0.00,,,0.00,Wunderground v.1.15,2013-11-26 02:36:00,
2013-11-25 21:41:00,20.7,11.5,30.19,WNW,295,4.0,4.0,67,0.00,,,0.00,Wunderground v.1.15,2013-11-26 02:41:00,
2013-11-25 21:46:00,20.6,11.4,30.20,WNW,284,3.0,4.0,67,0.00,,,0.00,Wunderground v.1.15,2013-11-26 02:46:00,
2013-11-25 21:51:00,20.6,11.4,30.20,West,270,3.0,3.0,67,0.00,,,0.00,Wunderground v.1.15,2013-11-26 02:51:00,
2013-11-25 21:56:00,20.4,11.5,30.20,WSW,255,3.0,4.0,68,0.00,,,0.00,Wunderground v.1.15,2013-11-26 02:56:00,
2013-11-25 22:01:00,20.2,11.3,30.21,WSW,240,4.0,5.0,68,0.00,,,0.00,Wunderground v.1.15,2013-11-26 03:01:00,
2013-11-25 22:11:00,20.5,12.6,30.22,West,261,6.0,7.0,71,0.00,,,0.00,Wunderground v.1.15,2013-11-26 03:11:00,
2013-11-25 22:16:00,20.7,12.8,30.23,West,270,8.0,8.0,71,0.00,,,0.00,Wunderground v.1.15,2013-11-26 03:16:00,
2013-11-25 22:26:00,20.6,12.7,30.23,West,261,7.0,8.0,71,0.00,,,0.00,Wunderground v.1.15,2013-11-26 03:26:00,
2013-11-25 22:36:00,20.9,12.3,30.23,West,267,8.0,9.0,69,0.00,,,0.00,Wunderground v.1.15,2013-11-26 03:36:00,
2013-11-25 22:46:00,20.8,11.9,30.24,West,271,7.0,11.0,68,0.00,,,0.00,Wunderground v.1.15,2013-11-26 03:46:00,
2013-11-25 22:51:00,20.8,11.9,30.23,WSW,254,7.0,7.0,68,0.00,,,0.00,Wunderground v.1.15,2013-11-26 03:51:00,
2013-11-25 22:56:00,20.8,11.9,30.23,WSW,249,7.0,7.0,68,0.00,,,0.00,Wunderground v.1.15,2013-11-26 03:56:00,
2013-11-25 23:01:00,20.7,11.8,30.24,WNW,283,5.0,5.0,68,0.00,,,0.00,Wunderground v.1.15,2013-11-26 04:01:00,
2013-11-25 23:06:00,20.5,11.6,30.23,West,263,4.0,5.0,68,0.00,,,0.00,Wunderground v.1.15,2013-11-26 04:06:00,
2013-11-25 23:11:00,20.4,11.5,30.24,SW,223,4.0,4.0,68,0.00,,,0.00,Wunderground v.1.15,2013-11-26 04:11:00,
2013-11-25 23:16:00,20.3,11.7,30.24,West,271,3.0,4.0,69,0.00,,,0.00,Wunderground v.1.15,2013-11-26 04:16:00,
2013-11-25 23:21:00,20.1,11.6,30.23,WNW,298,3.0,3.0,69,0.00,,,0.00,Wunderground v.1.15,2013-11-26 04:21:00,
2013-11-25 23:26:00,20.0,11.8,30.23,West,263,4.0,4.0,70,0.00,,,0.00,Wunderground v.1.15,2013-11-26 04:26:00,
2013-11-25 23:31:00,19.9,11.7,30.24,West,260,3.0,3.0,70,0.00,,,0.00,Wunderground v.1.15,2013-11-26 04:31:00,
2013-11-25 23:36:00,19.9,11.7,30.24,WSW,243,2.0,3.0,70,0.00,,,0.00,Wunderground v.1.15,2013-11-26 04:36:00,
2013-11-25 23:41:00,19.9,11.7,30.24,WSW,237,2.0,2.0,70,0.00,,,0.00,Wunderground v.1.15,2013-11-26 04:41:00,
2013-11-25 23:46:00,19.8,11.9,30.24,West,264,1.0,2.0,71,0.00,,,0.00,Wunderground v.1.15,2013-11-26 04:46:00,
2013-11-25 23:51:00,19.7,11.8,30.24,West,275,2.0,4.0,71,0.00,,,0.00,Wunderground v.1.15,2013-11-26 04:51:00,
2013-11-25 23:56:00,20.0,12.1,30.24,WSW,244,3.0,4.0,71,0.00,,,0.00,Wunderground v.1.15,2013-11-26 04:56:00,